#timestamp,LO_Frequency,Hit,StdDev 
1508288415.4,286046998.4,N
1508288435.2,286047001.4,N
1508288455.1,286047002.6,N
1508288456.0,286047002.6,N
1508288475.8,286047003.7,N
1508288495.6,286047001.9,N
1508288515.5,286047005.4,N
1508288535.3,286047001.7,N
1508288555.1,286047000.8,N
1508288575.9,286047002.2,N
1508288595.7,286047002.3,N
1508288615.5,286047001.0,N
1508288635.4,286046998.2,N
1508288655.2,286046998.0,N
1508288675.0,286046996.5,N
1508288675.9,286046996.5,N
1508288695.8,286046998.6,N
1508288715.6,286047000.0,N
1508288735.4,286047003.0,N
1508288755.3,286046999.7,N
1508288775.1,286047003.3,N
1508288776.0,286047003.3,N
1508288795.8,286047007.4,Y
1508288815.7,286047007.5,P
1508288835.5,286047004.7,N
1508288855.3,286047005.5,N
1508288875.2,286047002.0,N
1508288895.9,286046997.2,N
1508288915.7,286046996.0,N
1508288935.6,286046993.6,N
1508288955.4,286046995.9,N
1508288975.2,286046994.7,N
1508288995.0,286046994.5,N
1508288995.9,286046994.5,N
1508289015.8,286046993.7,N
1508289035.6,286046998.0,N
1508289055.4,286046996.9,N
1508289075.3,286046996.7,N
1508289095.1,286046993.3,N
1508289115.8,286046997.5,N
1508289135.7,286046993.3,N
1508289155.5,286046993.9,N
1508289175.3,286046990.3,N
1508289195.2,286046988.6,N
1508289215.9,286046988.9,N
1508289235.7,286046988.6,N
1508289255.6,286046990.1,N
1508289275.4,286046990.3,N
1508289295.2,286046991.9,N
1508289315.0,286046990.8,N
1508289315.9,286046990.8,N
1508289335.8,286046992.3,N
1508289355.6,286046990.6,N
1508289375.4,286046991.0,N
1508289395.3,286046991.8,N
1508289415.1,286046994.7,N
1508289435.8,286046994.8,N
1508289455.7,286046997.9,N
1508289475.5,286046992.2,N
1508289495.3,286046991.5,Y
1508289515.2,286046995.2,P
1508289535.9,286046996.6,P
1508289555.7,286046995.3,P
1508289575.6,286046994.3,Y
1508289595.4,286047000.3,P
1508289615.2,286047008.1,P
1508289635.1,286047008.7,N
1508289636.0,286047008.7,N
1508289655.8,286047011.1,N
1508289675.6,286047010.9,N
1508289695.5,286047010.9,N
1508289715.3,286047015.9,N
1508289735.1,286047015.4,N
1508289755.9,286047012.5,N
1508289775.7,286047014.4,N
1508289795.5,286047012.0,N
1508289815.4,286047012.2,N
1508289835.2,286047012.4,N
1508289855.0,286047011.5,N
1508289855.9,286047011.5,N
1508289875.8,286047009.4,N
1508289895.6,286047011.6,N
1508289915.4,286047014.5,Y
1508289935.3,286047000.0,P
1508289955.1,286047005.9,N
1508289956.0,286047005.9,N
1508289975.8,286047003.2,N
1508289995.7,286047004.5,N
1508290015.5,286047003.6,N
1508290035.3,286047006.0,N
1508290055.1,286047007.1,N
1508290075.9,286047005.0,N
1508290095.7,286047004.5,N
1508290115.5,286047003.6,N
1508290135.4,286047003.3,N
1508290155.2,286047003.6,N
1508290175.0,286047003.1,N
1508290175.9,286047003.1,N
1508290195.8,286047002.2,N
1508290215.6,286047000.2,N
1508290235.4,286047000.8,N
1508290255.3,286047000.4,N
1508290275.1,286047003.4,N
1508290295.8,286047005.6,N
1508290315.7,286047006.0,N
1508290335.5,286047006.9,N
1508290355.3,286047005.8,N
1508290375.2,286047001.6,N
1508290395.9,286047002.0,N
1508290415.7,286047002.5,N
1508290435.6,286047003.5,N
1508290455.4,286047003.8,N
1508290475.2,286047003.0,N
1508290495.0,286047001.8,N
1508290496.0,286047001.8,N
1508290515.8,286047003.6,N
1508290535.6,286047001.7,N
1508290555.4,286047002.2,N
1508290575.3,286047004.4,N
1508290595.1,286047001.0,N
1508290615.8,286047003.2,N
1508290635.7,286047000.2,N
1508290655.5,286047002.5,N
1508290675.3,286046999.7,N
1508290695.2,286047000.4,N
1508290715.9,286046998.7,N
1508290735.7,286046996.5,N
1508290755.6,286046997.1,N
1508290775.4,286046995.6,N
1508290795.2,286046993.6,N
1508290815.1,286046993.0,N
1508290816.0,286046993.0,N
1508290835.8,286046992.1,N
1508290855.6,286046989.2,N
1508290875.5,286046991.6,N
1508290895.3,286046990.6,N
1508290915.1,286046991.4,N
1508290935.8,286046988.7,N
1508290955.7,286046991.1,N
1508290975.5,286046990.5,N
1508290995.3,286046987.2,N
1508291015.2,286046987.9,N
1508291035.0,286046986.7,N
1508291035.9,286046986.7,N
1508291055.7,286046985.3,N
1508291075.6,286046988.2,N
1508291095.4,286046991.5,N
1508291115.2,286046991.2,N
1508291135.1,286046994.4,N
1508291136.0,286046994.4,N
1508291155.8,286046996.2,N
1508291175.6,286046995.0,N
1508291195.5,286046997.7,N
1508291215.3,286046994.0,N
1508291235.1,286046994.4,N
1508291255.9,286046992.3,N
1508291275.7,286046991.2,N
1508291295.5,286046990.9,N
1508291315.4,286046990.1,Y
1508291335.2,286047000.3,P
1508291355.0,286047002.4,N
1508291355.9,286047002.4,N
1508291375.8,286047004.1,N
1508291395.6,286047005.1,N
1508291415.4,286047003.8,N
1508291435.3,286047000.0,N
1508291455.1,286046995.2,N
1508291456.0,286046995.2,N
1508291475.8,286046999.2,N
1508291495.7,286047005.3,N
1508291515.5,286047004.0,N
1508291535.3,286047008.7,N
1508291555.2,286047011.6,N
1508291575.9,286047010.0,N
1508291595.7,286047009.9,N
1508291615.5,286047012.4,N
1508291635.4,286047009.5,N
1508291655.2,286047010.1,N
1508291675.0,286047010.6,N
1508291675.9,286047010.6,N
1508291695.8,286047012.3,N
1508291715.6,286047013.5,N
1508291735.4,286047012.5,N
1508291755.3,286047013.4,N
1508291775.1,286047014.7,N
1508291776.0,286047014.7,N
1508291795.8,286047014.4,N
1508291815.7,286047014.2,N
1508291835.5,286047016.7,N
1508291855.3,286047014.0,N
1508291875.2,286047011.5,N
1508291895.9,286047006.2,N
1508291915.7,286047010.7,N
1508291935.6,286047008.5,N
1508291955.4,286047012.2,N
1508291975.2,286047011.7,N
1508291995.0,286047009.6,N
1508291996.0,286047009.6,N
